Date,TemperatureHighF,TemperatureAvgF,TemperatureLowF,DewpointHighF,DewpointAvgF,DewpointLowF,HumidityHigh,HumidityAvg,HumidityLow,PressureMaxIn,PressureMinIn,WindSpeedMaxMPH,WindSpeedAvgMPH,GustSpeedMaxMPH,PrecipitationSumIn
2013-1-1,46.9,44.7,43.2,42.9,41.6,40.4,93,89,82,30.01,29.85,11,4,11,0.00
2013-1-2,53.8,53.2,52.5,53.2,52.4,51.7,98,97,96,30.22,30.18,10,7,13,0.00
2013-1-3,52.3,52.0,51.6,51.8,51.4,50.8,98,98,98,30.46,30.43,4,2,5,0.00
2013-1-4,51.1,51.0,50.7,50.8,50.7,50.4,99,99,99,30.40,30.38,7,5,11,0.00
2013-1-5,53.1,52.3,51.4,52.8,52.0,51.2,99,99,99,30.33,30.32,4,2,8,0.00
2013-1-6,52.5,51.6,51.3,52.0,51.3,51.0,99,99,98,30.17,30.12,12,8,15,0.00
2013-1-8,40.1,38.8,37.8,39.6,38.5,37.5,99,99,98,30.17,30.15,1,1,2,0.00
2013-1-9,45.5,44.5,43.5,41.7,41.0,40.1,92,87,82,29.98,29.91,6,4,8,0.00
2013-1-11,49.6,49.6,49.5,46.5,46.1,45.7,89,88,87,29.67,29.63,14,11,17,0.00
2013-1-13,45.3,42.9,40.5,43.4,41.4,39.9,98,95,91,30.09,30.06,6,3,8,0.00
2013-1-14,43.3,42.5,41.7,39.5,39.2,38.7,89,88,86,29.88,29.86,12,8,16,0.00
2013-1-15,44.6,44.6,44.4,44.1,44.0,43.8,98,98,97,29.57,29.53,13,10,16,0.00
2013-1-16,47.1,45.7,44.2,46.9,45.5,44.0,99,99,99,29.73,29.72,4,1,5,0.00
2013-1-18,42.6,37.2,34.2,39.0,35.9,33.9,99,95,87,29.13,29.12,2,1,3,0.00
2013-1-19,38.8,36.7,35.4,38.3,36.4,35.2,99,99,98,29.43,29.40,4,1,8,0.00
2013-1-20,39.2,38.8,38.3,37.2,35.8,33.4,95,89,80,29.18,29.16,14,10,16,0.00
2013-1-21,31.5,31.0,30.6,31.2,30.8,30.3,99,99,99,29.22,29.21,1,0,3,0.00
2013-1-22,33.1,30.3,28.8,31.0,29.1,28.1,98,95,92,29.59,29.55,1,0,2,0.00
2013-1-23,40.8,38.7,36.7,40.0,38.0,35.9,98,97,96,29.67,29.56,4,2,6,0.00
2013-1-26,52.9,51.6,49.5,52.6,51.4,49.2,99,99,99,29.36,28.96,24,15,24,0.00
2013-1-28,52.0,50.7,49.5,44.7,43.9,43.3,83,78,74,29.34,29.23,21,15,27,0.00
2013-1-29,48.9,48.5,48.0,48.5,48.1,47.5,99,98,97,29.31,29.28,9,5,11,0.00
2013-1-30,50.0,49.2,48.0,47.5,46.4,44.9,91,90,89,29.77,29.68,11,8,21,0.00
2013-1-31,49.5,45.7,42.6,43.7,42.0,40.5,93,87,74,29.76,29.68,9,5,20,0.00
2013-2-1,43.7,43.1,42.3,40.7,40.1,39.7,94,89,86,29.78,29.67,14,8,14,0.00
2013-2-2,42.6,40.9,39.9,38.4,37.9,37.3,92,89,83,30.20,30.17,2,1,3,0.00
2013-2-3,52.0,51.8,51.6,48.8,48.5,48.2,90,89,87,29.94,29.93,11,9,14,0.00
2013-2-4,45.9,43.6,39.9,40.5,38.8,36.7,92,83,76,29.88,29.77,19,11,24,0.00
2013-2-5,44.1,44.1,44.1,39.8,39.0,38.2,85,82,80,29.73,29.70,21,19,24,0.00
2013-2-6,39.2,38.1,36.7,36.0,35.0,33.8,89,89,88,30.24,30.22,6,5,8,0.00
2013-2-7,51.1,46.2,39.0,46.8,41.0,37.7,99,83,68,30.14,30.01,26,14,31,0.00
2013-2-8,44.1,41.1,38.1,40.5,38.7,36.7,96,91,86,30.20,30.18,7,2,7,0.00
2013-2-9,48.9,48.7,48.4,48.7,48.5,48.1,99,99,99,29.70,29.60,9,5,9,0.00
2013-2-10,47.5,43.1,39.7,39.7,37.4,35.8,95,81,67,29.21,29.18,14,8,18,0.00
2013-2-11,43.0,42.4,41.2,42.3,41.6,40.1,98,97,96,29.68,29.19,13,5,14,0.00
2013-2-14,43.0,41.0,39.0,40.1,39.2,37.7,95,93,89,30.00,29.96,6,4,7,0.00
2013-2-15,48.6,46.3,37.6,48.3,45.7,36.8,99,98,93,30.01,29.97,8,4,8,0.00
2013-2-16,49.1,49.0,48.9,48.8,48.8,48.7,99,99,99,29.97,29.96,8,7,9,0.00
2013-2-20,46.6,46.6,46.6,41.7,41.7,41.7,83,83,83,29.87,29.87,23,23,23,0.00
2013-2-22,36.0,35.7,35.6,29.1,28.8,28.4,76,76,75,30.09,30.07,7,5,9,0.00
2013-2-23,39.9,35.2,30.0,28.8,27.6,26.4,87,74,62,30.21,30.12,2,1,4,0.00
2013-2-24,38.7,38.0,37.6,32.0,31.7,31.5,80,78,76,30.31,30.30,1,0,2,0.00
2013-2-25,42.4,39.8,36.1,35.3,34.2,32.1,85,80,76,30.43,30.42,1,0,2,0.00
2013-2-27,38.3,38.3,38.3,36.2,36.2,36.2,92,92,92,30.47,30.47,1,1,4,0.00
2013-2-28,40.3,39.9,39.6,36.7,36.5,36.3,88,88,87,30.35,30.34,2,2,5,0.00
2013-3-1,44.2,43.4,42.6,37.1,36.6,36.2,78,77,76,30.34,30.34,5,4,6,0.00
2013-3-3,40.8,40.7,40.5,36.4,36.0,35.7,84,83,82,29.93,29.91,10,7,10,0.00
2013-3-4,44.4,44.3,44.1,42.0,41.2,40.6,91,89,87,29.58,29.57,9,6,11,0.00
2013-3-5,45.3,44.8,44.4,44.2,43.4,43.0,96,95,94,29.35,29.34,9,8,14,0.00
2013-3-6,48.4,48.2,48.0,48.1,47.9,47.8,99,99,99,29.24,29.21,13,8,13,0.00
2013-3-7,49.6,49.4,49.1,49.4,49.1,48.8,99,99,99,29.02,29.00,14,11,17,0.48
2013-3-8,49.6,49.3,48.6,49.4,49.0,48.3,99,99,99,29.21,29.00,15,12,17,0.17
2013-3-9,49.1,48.3,47.8,48.8,48.0,47.6,99,99,99,29.38,29.16,19,12,24,0.38
2013-3-10,47.7,37.5,35.2,47.4,36.9,33.7,99,98,94,29.63,29.38,13,10,21,1.11
2013-3-11,30.6,30.2,29.8,26.8,26.6,26.2,87,86,85,29.90,29.88,14,8,14,0.02
2013-3-13,45.7,43.5,41.7,39.8,39.3,38.7,89,86,79,29.96,29.92,11,5,13,0.00
2013-3-14,43.2,42.7,42.1,39.8,39.7,39.4,90,89,88,29.79,29.76,7,5,7,0.00
2013-3-15,42.6,39.6,37.6,36.5,35.6,35.2,91,86,79,29.28,29.23,5,3,6,0.40
2013-3-18,43.3,40.5,37.6,37.2,35.9,34.6,89,84,79,29.28,29.24,2,1,4,0.00
2013-3-19,39.6,37.5,35.4,34.5,34.0,33.3,92,87,82,29.39,29.36,4,2,5,0.00
2013-3-21,50.9,49.0,46.9,50.6,48.7,46.7,99,99,99,29.20,29.18,24,19,27,1.77
2013-3-22,50.4,47.8,46.6,48.4,47.1,46.0,99,97,93,29.38,29.26,11,7,13,0.21
2013-3-23,46.9,44.3,41.9,46.7,43.7,40.8,99,98,96,29.65,29.39,15,11,19,0.01
2013-3-24,41.9,38.6,37.2,40.8,35.2,34.1,96,88,84,29.80,29.65,14,9,14,0.00
2013-3-25,37.0,36.9,36.7,29.3,28.9,28.4,74,73,72,29.87,29.87,9,8,11,0.00
2013-3-26,44.6,38.4,32.5,34.5,31.4,28.6,88,76,65,29.88,29.83,15,6,16,0.00
2013-3-27,32.5,32.1,31.5,28.2,27.9,27.7,86,84,82,29.83,29.83,3,3,5,0.00
2013-3-29,40.8,40.7,40.5,31.3,30.7,29.8,69,68,65,29.62,29.61,14,11,16,0.00
2013-3-30,41.4,40.3,39.6,34.3,31.8,29.7,76,72,68,29.76,29.72,12,8,15,0.00
2013-3-31,42.4,42.2,41.5,37.0,35.4,34.1,81,77,73,29.72,29.56,21,16,23,0.13
2013-4-1,41.9,41.1,40.6,34.5,33.0,31.5,76,73,69,29.68,29.62,16,12,19,0.00
2013-4-2,40.1,39.7,39.4,34.2,33.2,32.4,80,78,74,29.94,29.92,6,5,11,0.00
2013-4-3,48.4,43.5,40.1,31.8,30.5,29.4,67,61,50,30.01,29.97,11,6,14,0.00
2013-4-4,47.1,45.8,44.4,29.3,28.8,28.3,54,52,51,30.02,30.01,7,5,12,0.00
2013-4-7,43.9,42.6,41.7,42.0,40.8,40.2,95,93,90,29.68,29.54,26,19,36,0.19
2013-4-8,44.2,43.8,43.2,44.0,43.5,42.9,99,99,99,29.19,29.18,24,18,24,0.40
2013-4-9,45.0,43.3,42.4,41.5,41.3,41.0,96,93,86,29.45,29.41,3,2,6,0.07
2013-4-12,54.3,47.2,40.3,38.9,37.7,35.2,82,71,57,29.57,29.51,7,2,8,0.00
2013-4-13,39.6,39.6,39.6,35.4,35.4,35.4,85,85,85,29.56,29.56,0,0,1,0.00
2013-4-14,56.5,53.6,51.4,51.7,51.2,50.3,96,92,84,29.46,29.36,23,16,27,0.00
2013-4-16,56.1,51.7,49.6,48.9,48.3,47.8,97,89,74,29.81,29.79,8,5,9,0.00
2013-4-17,49.5,49.1,48.2,47.1,45.4,43.2,96,87,79,29.36,29.25,25,18,32,0.00
2013-4-20,49.5,49.2,48.7,46.8,46.6,46.5,92,91,90,30.21,30.18,8,6,14,0.00